sat.trackr.live / text

‹ back to catalog

STARLINK-30235

NORAD 57294 · 2023-096E

PAYLOAD ACTIVE UNKNOWN

§ Identity

Operator
Country
US
Launch date
2023-07-10
Launch site
AFETR
Launch vehicle
Mass (kg)
RCS (m²)

Purposes: comms

External: N2YO · Heavens-Above · Gunter

§ Orbital elements

Epoch: 2026-09-20T22:00:03.000096Z

Period
92.82 min
Inclination
43.0009°
Eccentricity
0.0001638
Mean motion
15.51375208 rev/d
Perigee alt
411.6 km
Apogee alt
413.8 km
Semi-major
6,790.8 km
B*
1.8099e-3
RAAN
196.3298°
Arg perigee
270.9380°
Mean anomaly
122.0930°
Rev number
578

§ Raw data

STARLINK-302351 57294U 23096E   26263.91670139  .00110444  00000+0  18099-2 0  99942 57294  43.0009 196.3298 0001638 270.9380 122.0930 15.51375208  5784

JSON: /api/v1/satellites/57294 · /tle

For live sub-satellite position, see the globe view (requires WebGL).

§ Visibility from observer

Set your observer location to see the next 7 days of passes ≥ 10°. The values pass through the URL so the page stays shareable.

No JS? Fill the form by hand. The geolocation button needs JavaScript.